When you browse on this site, cookies collect data to enhance your experience and personalize the content and advertising you see.
Visit our Privacy Policy to learn more. By continuing to use the site, you agree to this use of cookies and data.
  • In Schweiz
  • Länderverzeichnis
  • Für 7 Tage
  • Wassertemperatur
  • Satellitenkarten
  • Wetterkarte
  • Widgets
  • user-avatar
    Anmelden

    Stündliche Wetter Yantai

    Heute, 22 Juli, Montag

    Zeit Temperatur Niederschläge Wind Luftdruck Luftfeuchtigkeit
    00:00 +28°C° 0 mm 3 m/S 750 mmHg 70%
    01:00 +28°C° 0 mm 3 m/S 750 mmHg 70%
    02:00 +28°C° 0 mm 4 m/S 750 mmHg 70%
    03:00 +27°C° 0 mm 3 m/S 750 mmHg 70%
    04:00 +27°C° 0 mm 3 m/S 750 mmHg 70%
    05:00 +27°C° 0 mm 2 m/S 750 mmHg 70%
    06:00 +29°C° 0 mm 2 m/S 750 mmHg 65%
    07:00 +30°C° 0 mm 2 m/S 751 mmHg 60%
    08:00 +32°C° 0 mm 2 m/S 751 mmHg 55%
    09:00 +35°C° 0 mm 2 m/S 751 mmHg 49%
    10:00 +37°C° 0 mm 2 m/S 751 mmHg 44%
    11:00 +39°C° 0 mm 1 m/S 751 mmHg 38%
    12:00 +39°C° 0 mm 2 m/S 750 mmHg 36%
    13:00 +40°C° 0 mm 2 m/S 750 mmHg 34%
    14:00 +40°C° 0 mm 3 m/S 750 mmHg 32%
    15:00 +39°C° 0 mm 3 m/S 750 mmHg 35%
    16:00 +40°C° 0 mm 4 m/S 749 mmHg 38%
    17:00 +39°C° 0 mm 5 m/S 749 mmHg 41%
    18:00 +35°C° 0 mm 5 m/S 749 mmHg 52%
    19:00 +33°C° 0 mm 5 m/S 749 mmHg 63%
    20:00 +29°C° 0 mm 5 m/S 750 mmHg 74%
    21:00 +28°C° 0 mm 5 m/S 749 mmHg 78%
    22:00 +28°C° 0 mm 4 m/S 749 mmHg 82%
    23:00 +27°C° 0 mm 4 m/S 749 mmHg 86%

    Morgen, 23 Juli, Dienstag

    Zeit Temperatur Niederschläge Wind Luftdruck Luftfeuchtigkeit
    00:00 +27°C° 0 mm 4 m/S 749 mmHg 89%
    01:00 +27°C° 0 mm 3 m/S 749 mmHg 91%
    02:00 +26°C° 0 mm 3 m/S 749 mmHg 94%
    03:00 +27°C° 0 mm 3 m/S 749 mmHg 94%
    04:00 +27°C° 0 mm 3 m/S 749 mmHg 94%
    05:00 +27°C° 0 mm 2 m/S 749 mmHg 94%
    06:00 +28°C° 0 mm 3 m/S 749 mmHg 86%
    07:00 +29°C° 0 mm 3 m/S 749 mmHg 78%
    08:00 +31°C° 0 mm 3 m/S 749 mmHg 71%
    09:00 +33°C° 0 mm 3 m/S 749 mmHg 64%
    10:00 +35°C° 0 mm 3 m/S 748 mmHg 57%
    11:00 +37°C° 0 mm 2 m/S 748 mmHg 50%
    12:00 +36°C° 0 mm 3 m/S 748 mmHg 51%
    13:00 +36°C° 0 mm 3 m/S 748 mmHg 52%
    14:00 +36°C° 0 mm 4 m/S 748 mmHg 54%
    15:00 +35°C° 0 mm 3 m/S 747 mmHg 58%
    16:00 +33°C° 0 mm 3 m/S 747 mmHg 63%
    17:00 +31°C° 0 mm 2 m/S 747 mmHg 68%
    18:00 +30°C° 0.1 mm 2 m/S 747 mmHg 72%
    19:00 +30°C° 0.1 mm 2 m/S 747 mmHg 76%
    20:00 +29°C° 0.1 mm 2 m/S 748 mmHg 81%
    21:00 +28°C° 0 mm 2 m/S 748 mmHg 83%
    22:00 +28°C° 0 mm 2 m/S 748 mmHg 85%
    23:00 +28°C° 0 mm 2 m/S 748 mmHg 87%

    übermorgen, 24 Juli, Mittwoch

    Zeit Temperatur Niederschläge Wind Luftdruck Luftfeuchtigkeit
    00:00 +27°C° 0 mm 2 m/S 748 mmHg 88%
    01:00 +27°C° 0 mm 2 m/S 748 mmHg 89%
    02:00 +27°C° 0 mm 2 m/S 748 mmHg 90%
    03:00 +27°C° 0.1 mm 2 m/S 748 mmHg 91%
    04:00 +27°C° 0.1 mm 1 m/S 748 mmHg 91%
    05:00 +27°C° 0.1 mm 1 m/S 748 mmHg 92%
    06:00 +28°C° 0 mm 1 m/S 748 mmHg 85%
    07:00 +30°C° 0 mm 1 m/S 748 mmHg 78%
    08:00 +31°C° 0 mm 1 m/S 748 mmHg 71%
    09:00 +33°C° 0 mm 1 m/S 748 mmHg 64%
    10:00 +35°C° 0 mm 2 m/S 749 mmHg 57%
    11:00 +37°C° 0 mm 3 m/S 749 mmHg 50%
    12:00 +36°C° 0.1 mm 3 m/S 748 mmHg 52%
    13:00 +36°C° 0.1 mm 4 m/S 748 mmHg 55%
    14:00 +35°C° 0.1 mm 4 m/S 748 mmHg 57%
    15:00 +35°C° 0 mm 4 m/S 748 mmHg 56%
    16:00 +35°C° 0 mm 4 m/S 748 mmHg 55%
    17:00 +35°C° 0 mm 3 m/S 748 mmHg 54%
    18:00 +34°C° 0 mm 4 m/S 748 mmHg 61%
    19:00 +32°C° 0 mm 4 m/S 748 mmHg 67%
    20:00 +29°C° 0 mm 4 m/S 748 mmHg 74%
    21:00 +29°C° 0.2 mm 4 m/S 748 mmHg 78%
    22:00 +28°C° 0.2 mm 3 m/S 749 mmHg 82%
    23:00 +28°C° 0.2 mm 2 m/S 749 mmHg 87%

    25 Juli, Donnerstag

    Zeit Temperatur Niederschläge Wind Luftdruck Luftfeuchtigkeit
    00:00 +28°C° 1.9 mm 2 m/S 749 mmHg 89%
    01:00 +27°C° 1.9 mm 2 m/S 748 mmHg 91%
    02:00 +27°C° 1.9 mm 2 m/S 748 mmHg 93%
    03:00 +27°C° 1.2 mm 2 m/S 748 mmHg 94%
    04:00 +27°C° 1.2 mm 2 m/S 748 mmHg 94%
    05:00 +28°C° 1.2 mm 2 m/S 747 mmHg 94%
    06:00 +28°C° 1.4 mm 2 m/S 748 mmHg 93%
    07:00 +28°C° 1.4 mm 2 m/S 748 mmHg 93%
    08:00 +28°C° 1.4 mm 2 m/S 748 mmHg 93%
    09:00 +28°C° 4.3 mm 2 m/S 748 mmHg 94%
    10:00 +28°C° 4.3 mm 2 m/S 747 mmHg 94%
    11:00 +28°C° 4.3 mm 2 m/S 747 mmHg 95%
    12:00 +29°C° 2.2 mm 1 m/S 747 mmHg 89%
    13:00 +29°C° 2.2 mm 1 m/S 747 mmHg 84%
    14:00 +30°C° 2.2 mm 1 m/S 746 mmHg 79%
    15:00 +31°C° 0.3 mm 1 m/S 746 mmHg 75%
    16:00 +32°C° 0.3 mm 2 m/S 746 mmHg 70%
    17:00 +32°C° 0.3 mm 2 m/S 746 mmHg 65%
    18:00 +31°C° 0 mm 2 m/S 746 mmHg 72%
    19:00 +30°C° 0 mm 2 m/S 746 mmHg 79%
    20:00 +28°C° 0 mm 1 m/S 746 mmHg 86%
    21:00 +28°C° 0 mm 2 m/S 746 mmHg 88%
    22:00 +28°C° 0 mm 2 m/S 746 mmHg 89%
    23:00 +28°C° 0 mm 2 m/S 747 mmHg 90%

    26 Juli, Freitag

    Zeit Temperatur Niederschläge Wind Luftdruck Luftfeuchtigkeit
    00:00 +28°C° 0 mm 3 m/S 746 mmHg 91%
    01:00 +27°C° 0 mm 3 m/S 746 mmHg 91%
    02:00 +27°C° 0 mm 3 m/S 746 mmHg 91%
    03:00 +27°C° 0 mm 3 m/S 746 mmHg 89%
    04:00 +27°C° 0 mm 3 m/S 746 mmHg 88%
    05:00 +27°C° 0 mm 4 m/S 746 mmHg 86%
    06:00 +29°C° 0 mm 3 m/S 746 mmHg 80%
    07:00 +31°C° 0 mm 3 m/S 747 mmHg 75%
    08:00 +34°C° 0 mm 3 m/S 747 mmHg 69%
    09:00 +35°C° 0 mm 2 m/S 747 mmHg 60%
    10:00 +37°C° 0 mm 2 m/S 747 mmHg 52%
    11:00 +39°C° 0 mm 1 m/S 747 mmHg 43%
    12:00 +40°C° 0 mm 2 m/S 747 mmHg 42%
    13:00 +42°C° 0 mm 3 m/S 747 mmHg 40%
    14:00 +42°C° 0 mm 3 m/S 746 mmHg 38%
    15:00 +41°C° 0 mm 4 m/S 746 mmHg 44%
    16:00 +40°C° 0 mm 5 m/S 746 mmHg 51%
    17:00 +38°C° 0 mm 7 m/S 746 mmHg 57%
    18:00 +35°C° 0 mm 6 m/S 746 mmHg 63%
    19:00 +34°C° 0 mm 6 m/S 747 mmHg 69%
    20:00 +32°C° 0 mm 6 m/S 747 mmHg 75%
    21:00 +30°C° 0 mm 6 m/S 747 mmHg 77%
    22:00 +30°C° 0 mm 5 m/S 747 mmHg 78%
    23:00 +29°C° 0 mm 5 m/S 748 mmHg 79%

    27 Juli, Samstag

    Zeit Temperatur Niederschläge Wind Luftdruck Luftfeuchtigkeit
    00:00 +29°C° 0 mm 5 m/S 748 mmHg 81%
    01:00 +29°C° 0 mm 5 m/S 748 mmHg 83%
    02:00 +29°C° 0 mm 5 m/S 748 mmHg 86%
    03:00 +28°C° 0 mm 4 m/S 748 mmHg 86%
    04:00 +28°C° 0 mm 4 m/S 748 mmHg 86%
    05:00 +28°C° 0 mm 4 m/S 748 mmHg 87%
    06:00 +30°C° 0 mm 3 m/S 749 mmHg 80%
    07:00 +31°C° 0 mm 3 m/S 749 mmHg 73%
    08:00 +34°C° 0 mm 2 m/S 749 mmHg 67%
    09:00 +35°C° 0 mm 3 m/S 749 mmHg 62%
    10:00 +36°C° 0 mm 4 m/S 750 mmHg 58%
    11:00 +37°C° 0 mm 4 m/S 750 mmHg 54%
    12:00 +37°C° 0.1 mm 5 m/S 750 mmHg 54%
    13:00 +37°C° 0.1 mm 5 m/S 749 mmHg 53%
    14:00 +38°C° 0.1 mm 6 m/S 749 mmHg 53%
    15:00 +36°C° 0.1 mm 6 m/S 749 mmHg 56%
    16:00 +35°C° 0.1 mm 6 m/S 749 mmHg 60%
    17:00 +34°C° 0.1 mm 6 m/S 748 mmHg 64%
    18:00 +33°C° 0 mm 6 m/S 749 mmHg 70%
    19:00 +30°C° 0 mm 5 m/S 749 mmHg 77%
    20:00 +29°C° 0 mm 5 m/S 750 mmHg 83%
    21:00 +29°C° 0 mm 4 m/S 750 mmHg 85%
    22:00 +29°C° 0 mm 4 m/S 750 mmHg 86%
    23:00 +28°C° 0 mm 4 m/S 750 mmHg 88%
    Mehr zeigen